Cloud_Cover
59 27 33 0 0 0 0 0 0 0 0 3 2 0 4 5 2 0 1 2 58 94 100 100 100 100 100 100 100 100 100 100 100 100 100 100 100 100 100 100 100 100 100 100 69
100 100 77 18 0 0 12 4 0 0 0 5 0 0 4 5 5 1 36 4 3 100 100 100 100 100 100 100 100 100 100 100 100 100 100 100 100 100 100 96 100 100 99 99 100
100 100 100 54 4 39 89 1 0 0 3 0 0 0 4 5 5 5 8 0 2 68 100 100 100 100 100 100 100 100 100 100 100 100 100 100 100 100 100 100 100 100 91 57 100
100 100 97 11 57 100 3 0 5 59 100 5 5 0 0 51 19 76 61 83 5 54 100 100 100 100 100 100 100 100 100 100 100 100 100 100 100 100 100 100 98 100 100 100 100
100 90 12 14 6 100 2 5 40 100 100 76 1 1 0 22 92 88 100 89 5 2 100 100 100 100 100 100 100 100 100 100 100 100 100 100 100 100 100 100 100 100 100 100 100
96 5 5 22 67 76 85 5 100 100 39 26 4 5 54 99 99 85 45 5 5 0 46 100 100 100 100 89 89 100 100 100 100 100 100 100 100 100 100 100 100 100 100 100 100
6 5 5 90 100 20 90 2 100 59 5 5 67 100 100 100 100 15 4 5 25 96 47 84 100 100 100 100 100 100 98 98 100 100 100 100 100 100 100 100 100 100 100 100 100
5 5 53 97 99 1 76 0 30 99 95 100 100 100 91 40 45 100 100 46 23 5 5 0 1 58 100 100 100 100 100 81 64 100 100 100 100 100 99 98 99 100 100 100 100
99 10 76 100 5 4 1 11 100 100 100 100 100 99 58 100 100 100 100 34 14 2 0 0 0 0 0 0 3 100 100 100 100 99 100 80 8 0 4 60 61 68 49 45 47
67 39 75 7 36 10 100 100 100 100 100 100 100 100 100 100 100 100 31 3 0 0 0 0 0 0 5 0 5 2 17 37 0 0 0 0 2 4 0 0 0 0 2 2 0
100 32 54 6 15 100 100 100 100 100 100 100 89 100 52 75 5 5 0 0 0 0 0 0 0 0 0 2 77 5 3 0 0 0 0 0 0 0 0 0 0 0 0 0 0
100 95 7 87 100 100 100 100 100 100 100 100 31 8 100 95 45 3 0 1 5 9 5 4 0 0 5 0 0 3 0 0 0 0 0 0 0 0 0 0 0 0 0 0 0
100 88 100 100 100 100 100 100 100 100 100 16 100 81 40 43 47 35 42 5 5 5 5 5 1 0 0 0 0 0 0 0 0 0 0 0 0 0 0 0 0 0 0 0 0
75 100 100 100 100 100 100 100 100 33 100 72 86 94 49 68 68 28 5 5 5 4 5 0 0 0 0 0 0 0 0 0 0 0 0 0 0 2 0 0 0 0 0 0 0
100 100 100 99 97 100 100 100 100 100 74 90 54 96 87 74 22 40 5 5 3 4 0 0 0 0 0 0 0 0 0 0 0 0 0 0 0 0 8 5 0 0 0 2 0
100 100 100 100 100 100 100 95 61 89 32 100 80 87 87 65 25 5 5 0 0 0 0 0 0 0 0 0 0 0 0 0 0 1 0 1 0 5 74 0 5 16 5 57 5
100 100 100 100 38 100 25 5 35 99 100 68 84 60 52 21 5 0 0 0 0 0 0 0 0 0 0 0 0 0 0 0 2 5 4 24 75 98 100 95 4 1 4 5 5
100 100 100 18 98 100 41 83 100 70 58 58 50 33 14 5 1 0 0 0 0 3 4 2 0 0 0 0 0 0 0 0 0 0 0 2 64 35 65 54 98 92 91 90 5
100 100 100 58 100 100 46 100 100 30 52 15 14 18 5 0 0 0 1 0 0 0 1 3 0 0 0 0 0 0 0 3 2 5 3 1 1 5 61 84 100 100 100 92 68
100 100 100 100 86 88 100 84 13 24 29 5 5 5 3 0 0 0 0 0 0 0 0 0 0 0 0 0 0 0 0 0 1 1 2 0 3 5 5 5 5 84 100 95 99
100 100 28 14 63 100 100 60 27 18 5 5 5 5 34 4 4 11 0 0 0 0 0 1 0 0 0 0 0 0 0 0 0 0 2 17 3 5 81 20 56 19 99 50 90
100 100 5 80 99 100 86 17 36 17 5 5 5 0 7 5 12 4 0 2 0 0 0 0 0 0 0 0 0 0 0 5 5 3 0 4 1 2 54 7 56 100 96 99 100
99 27 100 100 100 100 77 56 34 12 5 5 5 0 0 0 1 0 5 3 0 0 0 0 0 0 0 0 0 0 0 0 0 0 5 4 0 29 89 10 99 73 70 62 99
100 100 100 100 100 100 92 71 72 5 5 5 5 0 0 0 0 0 5 0 0 0 0 0 0 0 0 0 0 0 0 0 0 0 0 1 5 6 27 58 5 16 38 5 5
100 100 100 100 100 97 55 70 56 27 6 5 5 0 0 0 3 5 0 0 0 0 0 0 0 0 0 0 0 0 0 0 0 0 0 0 77 95 21 5 16 76 84 74 97
100 100 100 100 84 85 57 35 16 48 6 5 5 2 2 5 5 4 2 0 0 0 0 0 0 0 0 0 0 0 0 0 0 0 0 4 68 38 5 6 5 5 5 5 5
100 100 100 100 100 100 35 6 37 15 18 5 5 5 5 6 6 5 5 5 5 5 1 2 5 8 5 6 1 0 5 4 3 0 1 5 5 5 1 5 5 8 23 45 96